Location: Canyon City
(32.5951°N, 116.5278°W)
Time: 03:18:21
(UTC+00:00)

NOSS 3-2 (A) - Pass Details

Date: 08 September 2024
Orbit: 700 x 1505 km, 63.4° (Epoch: 29 September)

Event Time Altitude Azimuth Distance (km) Brightness Sun altitude
Exits shadow 12:35:08 13° 233° (SW) 2,021 4.6 -11.3°
Maximum altitude 12:39:25 47° 305° (NW) 1,011 3.4 -10.5°
Drops below altitude 10° 12:44:51 10° 19° (NNE) 2,503 6.1 -9.3°
Sets 12:47:39 0° 25° (NNE) 3,562 7.0 -8.8°
